Location: K�ln
(50.9455°N, 6.9544°E)
Time: 14:49:36
(UTC+01:00)

Envisat - Visible Passes

Search period start: 25 February 2018 00:00
Search period end: 07 March 2018 00:00
Orbit: 764 x 766 km, 98.2° (Epoch: 25 February)

Date Brightness Start Highest point End Pass type
(mag) Time Alt. Az. Time Alt. Az. Time Alt. Az.
25 Feb 3.3 19:08:29 10° SE 19:13:17 44° ENE 19:18:07 10° N visible
25 Feb 4.7 20:47:59 10° SSW 20:52:27 31° W 20:56:57 10° NNW visible
26 Feb 3.5 20:10:30 10° S 20:15:31 60° W 20:20:35 10° NNW visible
27 Feb 2.9 19:33:43 10° SSE 19:38:46 71° ENE 19:43:51 10° N visible
27 Feb 5.5 21:14:43 10° SW 21:18:19 19° W 21:21:57 10° NW visible
28 Feb 3.5 18:57:35 10° SE 19:02:12 37° ENE 19:06:52 10° N visible
28 Feb 4.4 20:36:33 10° SSW 20:41:14 37° W 20:45:58 10° NNW visible
01 Mar 3.2 19:59:17 10° S 20:04:21 74° WSW 20:09:28 10° NNW visible
01 Mar 5.9 21:42:32 10° WSW 21:44:17 12° W 21:46:03 10° WNW visible
02 Mar 3.0 19:22:41 10° SSE 19:27:40 58° ENE 19:32:40 10° N visible
02 Mar 5.2 21:03:02 10° SW 21:07:03 23° W 21:11:06 10° NW visible
03 Mar 3.8 18:46:44 10° ESE 18:51:09 31° ENE 18:55:36 10° N visible
03 Mar 4.0 20:25:10 10° S 20:30:02 45° W 20:34:56 10° NNW visible
04 Mar 3.0 19:48:07 10° SSE 19:53:12 89° WSW 19:58:20 10° NNW visible
04 Mar 5.8 21:30:14 10° WSW 21:32:59 14° W 21:35:44 10° NW visible
05 Mar 3.2 19:11:43 10° SE 19:16:34 48° ENE 19:21:27 10° N visible
05 Mar 4.9 20:51:28 10° SSW 20:55:49 28° W 21:00:12 10° NW visible
06 Mar 3.7 20:13:52 10° S 20:18:51 55° W 20:23:52 10° NNW visible
